Temperature
9 9 9 8 8 8 8 8 8 8 8 8 8 8 9 9 10 10 10 11 11 11 11 11 11 11 11 11 11 11 10 10 10 10 10 10 10 10 10 11 11 11 10
9 8 8 8 8 8 8 8 8 8 7 7 7 7 8 8 9 9 9 10 10 11 11 11 11 11 11 10 10 10 10 10 9 9 9 9 9 9 9 10 10 10 10
8 8 8 8 8 8 7 7 7 7 7 8 8 8 8 8 8 8 9 9 9 10 10 10 11 11 10 10 10 9 9 9 9 8 8 8 8 8 8 9 9 9 9
8 8 8 8 8 7 7 7 7 7 8 8 7 8 7 7 8 8 8 9 9 9 9 9 9 9 9 9 9 8 8 8 8 8 8 7 7 7 8 8 8 8 8
8 8 8 8 8 8 7 7 7 7 7 7 7 7 7 7 8 8 8 8 9 9 9 8 8 8 8 8 8 8 7 7 7 7 7 7 7 7 7 7 7 7 7
8 8 8 8 8 8 8 7 7 7 7 7 7 7 7 7 8 8 8 8 8 8 8 8 8 8 8 8 8 7 7 7 6 6 6 6 6 6 6 7 7 7 6
9 8 8 8 8 8 8 7 7 7 7 6 6 6 7 7 8 8 8 7 7 7 7 7 7 7 7 7 7 7 7 6 6 6 6 6 6 6 6 6 6 6 6
9 9 9 8 8 8 8 7 7 6 6 6 5 4 4 5 6 6 7 7 7 6 6 6 6 6 6 6 6 6 7 7 6 6 5 5 6 6 6 6 6 6 6
9 8 8 8 8 7 7 7 6 6 6 6 5 4 4 4 4 5 5 6 6 5 5 5 5 5 5 5 5 5 6 6 6 5 5 5 5 5 6 6 6 6 6
8 8 8 7 7 7 7 6 6 6 5 5 5 5 4 4 3 3 4 4 5 4 4 4 4 4 4 4 4 4 4 4 4 4 4 4 4 4 5 5 6 6 6
7 7 7 7 7 7 6 6 6 6 5 5 5 5 4 4 3 2 2 3 4 4 4 3 3 4 4 4 4 4 4 3 3 3 3 3 3 3 4 4 5 5 6
7 6 6 6 6 6 6 6 6 5 5 5 4 4 3 3 3 3 2 2 2 2 2 2 3 3 3 3 3 3 3 3 2 2 2 2 2 2 2 3 4 4 5
6 6 6 6 6 6 6 5 5 5 5 4 4 3 3 2 2 2 1 1 1 1 1 1 2 2 2 2 2 3 3 2 2 2 2 1 1 1 1 2 2 3 4
6 6 6 6 6 6 5 5 5 4 4 3 3 3 2 2 2 1 1 0 0 0 0 0 1 1 1 1 1 2 2 2 2 1 1 1 0 0 0 0 1 1 2
6 6 6 6 6 5 5 5 4 4 3 3 3 2 2 1 1 1 0 -0 -0 -1 -1 -0 -0 -0 -0 -0 -0 0 1 1 1 1 0 -0 -0 -0 -1 -0 -0 0 1
6 6 5 5 5 5 5 4 4 3 2 2 2 1 1 1 0 -0 -1 -1 -1 -1 -2 -1 -1 -1 -1 -2 -2 -1 -1 -1 -1 -1 -1 -1 -1 -1 -1 -1 -1 -1 -0
5 5 5 5 5 4 4 3 3 2 2 1 1 0 -0 -1 -1 -1 -2 -2 -2 -2 -2 -2 -2 -2 -2 -2 -2 -2 -2 -2 -2 -2 -2 -2 -2 -2 -2 -1 -1 -1 -1
5 5 4 4 4 3 3 2 2 1 1 0 -0 -1 -1 -2 -2 -3 -3 -3 -3 -3 -3 -3 -3 -3 -3 -3 -3 -3 -3 -3 -3 -3 -2 -2 -2 -2 -2 -2 -2 -2 -1
4 4 4 3 3 2 2 1 1 0 -1 -1 -2 -2 -3 -3 -4 -4 -4 -4 -4 -4 -4 -4 -4 -4 -4 -4 -3 -3 -3 -3 -3 -3 -3 -3 -3 -3 -3 -2 -2 -2 -2
4 3 3 2 2 1 1 0 -0 -1 -2 -2 -3 -3 -4 -4 -5 -5 -5 -5 -5 -4 -4 -4 -4 -4 -4 -4 -4 -4 -4 -4 -3 -3 -3 -3 -3 -3 -3 -3 -3 -3 -2
3 2 2 1 1 0 -0 -1 -2 -2 -3 -3 -3 -4 -4 -5 -5 -5 -5 -4 -4 -4 -4 -4 -4 -4 -4 -4 -4 -4 -4 -4 -4 -4 -4 -3 -3 -3 -3 -3 -3 -3 -3
2 1 1 0 -0 -0 -1 -2 -2 -3 -3 -4 -4 -4 -5 -5 -5 -5 -5 -4 -4 -4 -4 -4 -4 -4 -4 -4 -4 -4 -4 -4 -4 -4 -4 -4 -4 -4 -3 -3 -3 -4 -4
1 0 -0 -0 -1 -1 -2 -2 -3 -3 -4 -4 -5 -5 -5 -5 -5 -5 -5 -5 -5 -5 -4 -4 -4 -4 -4 -4 -4 -4 -4 -4 -4 -4 -5 -4 -4 -4 -4 -4 -4 -4 -4
0 -0 -1 -1 -1 -2 -2 -3 -4 -4 -4 -5 -5 -5 -5 -5 -5 -5 -5 -5 -4 -4 -4 -4 -4 -4 -4 -4 -4 -4 -4 -4 -5 -4 -5 -5 -5 -4 -4 -4 -4 -5 -5
-1 -1 -1 -2 -2 -3 -3 -4 -4 -4 -5 -5 -5 -5 -5 -5 -5 -5 -5 -5 -4 -4 -4 -4 -4 -4 -4 -4 -4 -4 -4 -4 -4 -4 -4 -5 -5 -5 -5 -5 -4 -5 -5
-1 -2 -2 -2 -3 -3 -4 -4 -5 -5 -5 -5 -5 -5 -6 -6 -5 -5 -5 -5 -5 -4 -4 -4 -4 -4 -4 -4 -4 -4 -4 -4 -4 -5 -4 -5 -5 -5 -5 -5 -4 -5 -5
Wind_Speed
6 7 7 8 8 8 8 9 9 10 10 10 11 11 12 13 14 15 16 18 19 20 21 22 22 22 22 22 22 22 21 21 21 20 20 19 19 18 17 17 16 15 14
7 7 6 7 7 8 8 7 8 8 7 8 7 9 11 14 16 18 18 20 21 23 24 24 25 25 25 25 25 25 25 24 24 24 23 23 22 22 21 20 19 18 17
9 8 6 5 7 9 9 8 8 7 5 6 6 9 11 14 15 16 18 19 20 23 25 26 27 27 28 28 28 28 27 27 27 27 27 26 26 25 24 24 23 22 21
11 8 5 5 8 9 7 4 3 4 5 6 6 6 7 10 13 16 17 19 19 20 23 26 27 28 29 29 30 30 30 30 30 30 30 29 29 28 28 27 26 25 24
8 8 6 6 8 7 5 3 4 4 5 6 6 7 6 6 8 13 13 17 19 20 20 24 27 28 29 30 31 32 32 32 33 33 33 32 32 32 31 30 29 28 27
7 7 6 6 7 4 4 4 5 5 5 6 8 8 7 8 7 9 11 15 17 19 20 21 22 23 28 29 30 31 32 33 34 35 35 35 35 34 34 33 32 32 31
5 4 3 4 4 4 5 5 4 5 5 4 5 6 7 10 13 12 9 9 11 16 18 18 19 19 20 26 28 29 30 32 33 34 35 36 36 36 36 36 35 34 34
3 3 3 3 4 4 5 5 5 4 4 3 3 4 6 6 6 8 6 7 8 9 9 15 17 17 18 19 23 28 29 30 31 33 34 35 36 37 38 38 37 37 36
2 2 3 4 4 3 4 6 5 6 5 4 4 5 4 5 5 5 7 7 6 6 6 10 14 17 19 19 21 25 29 30 31 32 32 33 34 36 37 38 39 39 38
2 1 3 4 4 3 5 6 5 5 5 5 5 5 7 7 5 6 5 5 7 8 9 9 9 15 19 19 21 25 28 30 31 32 32 32 33 34 36 37 38 39 39
2 3 3 3 4 4 5 6 6 6 5 6 6 6 7 6 8 9 11 7 7 8 10 10 7 10 17 19 19 24 29 30 31 32 32 32 32 33 34 36 37 38 39
1 1 2 3 5 5 5 6 6 7 7 8 7 7 7 7 7 8 11 11 11 8 8 8 8 7 13 16 20 26 29 31 31 31 31 31 31 32 33 35 36 37 38
3 3 2 3 4 6 7 6 6 8 8 9 9 8 8 9 8 9 12 15 14 10 9 8 8 8 14 16 17 24 28 31 31 31 30 30 31 31 33 34 35 36 37
3 3 5 6 7 8 8 6 6 8 8 9 10 10 8 9 8 8 9 12 18 15 10 10 7 8 10 13 16 20 19 26 28 28 28 29 30 31 32 33 34 35 36
4 5 6 6 7 8 7 7 7 8 8 8 9 10 9 8 8 8 8 9 12 20 19 11 7 7 7 12 19 18 15 23 28 29 28 28 29 30 31 32 33 34 35
4 6 7 7 8 7 7 8 8 8 9 9 8 9 10 9 8 8 8 9 9 14 21 13 8 8 9 11 22 20 17 27 29 30 30 30 30 31 31 31 32 33 34
6 7 8 8 9 9 9 9 9 9 10 10 10 10 11 10 9 8 8 9 9 10 19 19 9 7 9 10 11 13 16 15 18 28 31 31 31 31 31 30 31 31 32
7 7 8 9 9 10 9 9 10 10 10 11 11 10 11 11 12 10 10 11 10 10 14 21 15 8 10 10 11 11 12 15 12 25 30 31 31 31 31 30 30 30 31
8 8 9 9 10 10 10 10 10 11 11 11 11 11 12 13 15 13 13 13 12 14 12 16 18 11 9 10 11 12 14 12 15 22 26 28 29 30 29 29 28 29 29
9 9 10 10 10 10 10 11 11 11 12 12 12 12 14 14 16 16 16 15 14 15 14 15 17 14 11 10 10 11 12 10 12 13 18 21 25 27 27 27 27 27 27
10 10 11 11 10 10 10 11 10 11 12 12 12 12 14 19 24 21 18 14 13 14 14 15 15 15 13 10 10 10 13 11 10 10 10 12 11 9 11 19 23 24 25
10 10 11 11 11 10 20 25 20 12 10 11 12 11 13 18 22 27 29 28 23 17 14 14 15 15 15 13 11 11 12 13 12 5 9 11 8 9 8 7 18 23 24
10 11 11 11 11 13 23 27 27 17 12 11 12 12 14 16 22 14 21 27 25 29 27 19 17 17 16 14 13 15 14 14 14 6 7 10 7 9 7 11 21 22 22
10 10 10 11 11 14 26 28 28 17 11 11 12 13 15 14 16 18 15 14 15 17 20 16 14 16 17 15 14 15 16 15 14 10 9 11 8 8 9 7 17 21 22
10 10 10 11 12 15 24 27 27 12 11 12 12 13 16 15 24 29 20 16 17 15 20 26 26 25 27 28 22 12 11 11 12 8 7 7 6 6 6 6 11 20 21
10 10 11 10 12 12 21 26 26 10 11 12 11 12 21 23 27 29 18 15 18 16 14 16 18 20 18 19 24 14 10 11 10 7 6 6 5 4 4 5 7 7 9
Wind_Direction
191 215 230 233 230 230 222 220 233 251 257 251 241 239 243 251 254 253 250 253 256 258 262 264 263 262 261 261 260 259 258 256 255 254 253 253 253 252 252 251 251 251 250
206 214 230 237 236 242 251 247 247 255 261 262 258 254 252 251 251 251 251 251 253 256 259 262 263 262 261 260 259 258 257 256 254 253 252 251 250 250 249 249 249 249 248
223 225 230 241 245 247 248 252 261 274 275 271 265 265 263 258 255 253 253 251 250 252 257 261 262 263 263 262 261 259 258 257 256 254 252 251 249 249 248 247 246 246 246
226 236 239 245 256 259 255 247 244 268 273 268 262 257 257 257 255 254 254 253 251 250 254 260 263 265 265 265 264 262 260 258 256 255 254 252 250 248 247 247 245 245 244
234 240 244 251 262 263 255 246 246 247 268 278 278 272 267 263 262 262 255 252 250 249 250 257 263 266 268 269 269 268 265 262 259 256 255 253 252 250 248 247 245 244 244
247 248 254 266 273 271 266 256 256 258 255 260 276 279 272 268 264 260 257 256 253 251 251 252 256 260 265 269 271 271 270 268 265 261 257 255 253 252 250 248 246 245 244
261 254 253 269 277 274 269 264 265 275 279 279 297 296 279 259 255 255 249 247 245 246 247 249 252 252 257 264 269 272 273 272 270 267 263 259 256 254 252 250 248 246 244
281 260 247 252 258 264 273 273 267 269 274 268 262 306 310 307 277 262 259 248 245 242 243 250 252 251 248 250 256 266 271 274 275 274 270 266 261 258 255 252 250 248 246
316 295 275 269 271 262 262 262 257 257 266 267 222 220 264 277 313 294 279 275 268 261 255 254 253 252 250 246 248 258 265 270 274 275 275 273 269 264 260 256 253 250 247
185 281 296 293 285 276 272 267 255 247 248 261 263 237 234 238 271 297 283 284 295 284 273 265 257 254 251 248 248 255 262 266 270 273 274 275 274 271 266 262 258 254 250
180 206 234 269 278 271 269 271 275 265 251 248 248 253 260 261 248 262 281 274 265 259 263 262 259 257 255 250 246 250 260 266 269 272 273 274 274 273 271 267 263 259 255
311 270 236 264 271 267 262 262 262 263 258 257 255 249 249 251 254 257 273 280 279 272 267 271 273 270 271 263 256 257 260 264 267 269 271 273 274 274 274 272 269 266 262
326 323 332 294 283 276 272 265 261 260 258 258 257 256 253 253 252 258 271 281 283 280 271 266 265 271 276 274 270 266 264 266 267 268 269 271 272 273 274 273 272 269 266
301 307 309 293 287 284 281 273 269 263 260 257 260 259 259 259 257 256 263 278 287 287 272 263 260 262 277 284 286 282 276 275 275 274 273 272 272 273 273 272 271 269 267
292 299 296 287 285 285 281 278 271 269 267 263 263 264 264 264 260 260 259 258 274 287 286 274 264 264 278 286 289 291 280 279 279 278 277 276 275 274 273 272 270 268 267
298 299 294 290 288 284 281 282 279 276 276 273 270 272 272 272 269 264 262 262 259 271 283 282 268 263 268 277 281 283 284 285 283 280 279 279 277 276 274 272 270 268 266
294 292 290 290 289 286 284 283 281 284 285 285 285 285 283 284 283 278 273 269 266 265 277 284 276 268 264 269 276 276 279 278 277 278 277 277 277 277 276 274 271 268 266
296 292 290 288 286 286 285 285 286 288 286 288 289 290 291 294 290 287 283 278 275 270 274 283 285 278 270 269 272 272 277 277 271 276 276 275 275 276 276 274 272 270 267
293 289 288 286 286 285 285 282 281 280 279 279 281 283 285 287 286 284 282 280 278 277 273 277 283 282 275 272 274 273 271 270 271 273 273 274 274 275 275 275 273 270 267
288 287 284 281 280 279 279 279 278 276 275 273 272 272 277 278 279 280 280 276 274 273 271 271 276 279 277 268 266 272 274 264 265 267 268 268 270 272 273 274 274 272 270
284 281 281 279 277 279 278 277 274 270 270 272 271 270 273 281 283 284 282 276 271 272 274 274 276 278 278 275 271 270 274 273 264 258 259 260 262 261 265 269 271 274 273
282 281 280 280 280 284 293 298 299 289 277 276 280 279 281 285 287 288 288 288 285 281 279 277 280 280 281 277 274 272 275 278 277 239 249 257 247 251 248 242 260 266 268
283 283 282 281 282 287 298 302 303 301 290 285 286 288 292 292 293 285 285 286 285 284 283 280 278 278 279 276 274 275 271 272 273 261 260 268 252 254 249 253 261 263 264
282 284 286 287 288 293 302 304 305 302 289 285 285 286 286 285 284 286 279 274 270 272 273 274 267 267 268 268 262 264 268 270 268 259 245 264 257 248 249 244 258 261 264
286 287 287 288 289 295 302 305 304 295 291 287 285 285 288 286 287 292 291 284 282 278 279 276 273 272 270 272 270 267 261 264 270 259 222 239 249 242 241 245 251 256 259
285 286 286 285 288 292 302 307 307 298 295 293 289 284 289 291 292 294 292 286 286 285 281 279 277 276 275 274 275 268 263 268 271 266 214 216 226 214 245 242 236 242 253
Height
1558 1559 1559 1559 1559 1559 1558 1557 1556 1556 1555 1555 1553 1552 1550 1550 1549 1548 1547 1547 1547 1546 1546 1545 1544 1544 1543 1542 1542 1541 1540 1540 1539 1538 1538 1538 1537 1537 1537 1536 1536 1536 1536
1556 1556 1557 1557 1557 1556 1556 1555 1554 1553 1552 1551 1550 1548 1547 1545 1544 1543 1542 1541 1540 1539 1539 1539 1539 1538 1537 1536 1536 1535 1535 1534 1534 1533 1533 1533 1532 1532 1532 1532 1532 1532 1532
1554 1554 1554 1554 1554 1553 1552 1552 1550 1549 1548 1547 1545 1544 1542 1541 1539 1537 1536 1535 1534 1533 1532 1531 1531 1531 1530 1530 1529 1529 1528 1528 1527 1527 1527 1527 1526 1526 1526 1526 1526 1526 1527
1551 1551 1551 1550 1550 1550 1549 1548 1546 1545 1544 1542 1540 1538 1537 1535 1533 1532 1530 1529 1527 1526 1525 1524 1523 1522 1522 1522 1521 1521 1521 1520 1520 1520 1520 1520 1520 1520 1520 1520 1520 1520 1521
1548 1547 1547 1547 1547 1546 1545 1544 1542 1541 1539 1537 1535 1533 1531 1529 1527 1526 1523 1522 1520 1519 1518 1517 1516 1515 1514 1513 1513 1513 1513 1513 1512 1512 1511 1512 1512 1512 1512 1513 1513 1513 1514
1544 1544 1543 1543 1542 1541 1541 1540 1538 1537 1535 1532 1530 1527 1524 1523 1521 1519 1517 1515 1513 1512 1511 1510 1509 1508 1507 1506 1505 1504 1504 1504 1504 1504 1503 1503 1503 1504 1504 1505 1505 1506 1507
1541 1540 1539 1539 1538 1538 1537 1536 1534 1532 1531 1529 1525 1521 1517 1515 1513 1510 1509 1507 1507 1506 1505 1504 1503 1501 1500 1499 1498 1497 1496 1495 1495 1494 1495 1495 1495 1495 1496 1496 1497 1498 1498
1538 1537 1537 1536 1535 1534 1533 1532 1530 1528 1527 1526 1523 1518 1511 1507 1505 1505 1504 1503 1502 1501 1499 1498 1496 1494 1492 1491 1490 1489 1487 1486 1485 1485 1485 1485 1485 1486 1486 1487 1488 1488 1489
1536 1535 1534 1533 1532 1531 1530 1528 1527 1525 1523 1522 1520 1518 1512 1504 1500 1497 1497 1497 1496 1495 1493 1491 1489 1487 1485 1483 1481 1480 1479 1477 1476 1475 1474 1474 1475 1475 1476 1477 1477 1478 1480
1534 1533 1532 1530 1529 1528 1526 1525 1523 1521 1519 1517 1516 1514 1511 1506 1501 1490 1487 1488 1488 1487 1486 1484 1481 1479 1478 1475 1473 1471 1470 1468 1466 1465 1464 1464 1464 1464 1465 1465 1466 1467 1469
1531 1530 1529 1527 1526 1524 1523 1521 1519 1517 1515 1512 1510 1507 1505 1502 1498 1492 1481 1477 1477 1477 1476 1475 1473 1471 1470 1467 1465 1463 1461 1459 1458 1456 1455 1454 1453 1453 1454 1454 1455 1456 1457
1529 1528 1526 1524 1522 1520 1518 1516 1514 1512 1509 1507 1504 1501 1499 1495 1491 1487 1478 1471 1468 1466 1467 1466 1465 1463 1461 1459 1457 1455 1453 1451 1449 1447 1445 1444 1443 1442 1442 1443 1443 1444 1445
1526 1524 1523 1521 1518 1516 1514 1511 1508 1506 1503 1500 1497 1494 1491 1489 1486 1482 1475 1466 1460 1455 1455 1454 1454 1453 1451 1450 1447 1446 1443 1442 1440 1438 1436 1435 1433 1432 1431 1431 1431 1432 1434
1522 1521 1519 1516 1514 1511 1508 1505 1502 1499 1496 1493 1490 1487 1484 1481 1478 1475 1471 1464 1454 1445 1443 1442 1443 1443 1442 1441 1438 1436 1434 1432 1431 1429 1427 1425 1423 1422 1421 1420 1420 1420 1421
1518 1516 1514 1511 1508 1505 1502 1499 1495 1492 1489 1486 1482 1479 1475 1472 1469 1466 1463 1460 1454 1441 1430 1431 1432 1432 1432 1431 1429 1426 1424 1422 1421 1419 1417 1415 1414 1412 1410 1409 1409 1409 1409
1514 1511 1509 1506 1503 1499 1496 1492 1488 1485 1481 1477 1474 1470 1466 1463 1460 1457 1453 1450 1447 1440 1425 1419 1420 1421 1421 1420 1419 1416 1414 1412 1411 1409 1407 1405 1404 1402 1400 1399 1398 1398 1398
1509 1506 1503 1500 1496 1493 1489 1485 1481 1477 1473 1469 1465 1461 1457 1454 1449 1446 1443 1439 1436 1432 1422 1410 1410 1411 1410 1409 1408 1406 1404 1402 1399 1398 1397 1395 1393 1392 1390 1389 1388 1388 1388
1504 1501 1497 1493 1489 1485 1481 1477 1472 1468 1464 1459 1455 1451 1447 1443 1439 1435 1431 1428 1424 1422 1417 1406 1399 1400 1400 1399 1397 1395 1393 1391 1389 1388 1386 1385 1383 1382 1380 1379 1378 1378 1378
1498 1494 1490 1486 1482 1478 1473 1469 1464 1459 1455 1450 1446 1442 1437 1433 1428 1424 1421 1417 1414 1411 1408 1401 1392 1391 1390 1389 1387 1384 1382 1380 1378 1377 1376 1374 1373 1371 1370 1369 1369 1368 1368
1491 1487 1483 1479 1474 1470 1465 1460 1455 1450 1445 1441 1437 1432 1428 1424 1419 1414 1410 1407 1404 1400 1397 1393 1386 1382 1380 1379 1377 1374 1371 1369 1367 1367 1365 1364 1363 1362 1361 1360 1360 1359 1358
1484 1480 1475 1471 1467 1462 1458 1452 1447 1442 1436 1431 1427 1423 1419 1415 1411 1407 1403 1399 1396 1392 1388 1384 1379 1375 1372 1370 1368 1366 1362 1359 1357 1357 1354 1353 1353 1352 1351 1351 1350 1349 1349
1477 1472 1468 1463 1459 1455 1451 1446 1441 1435 1429 1423 1418 1413 1410 1405 1401 1398 1395 1392 1389 1384 1380 1376 1372 1368 1365 1363 1361 1358 1355 1352 1348 1348 1346 1343 1344 1342 1342 1342 1341 1341 1340
1469 1465 1461 1456 1451 1447 1443 1438 1433 1427 1421 1415 1410 1405 1400 1397 1393 1389 1385 1381 1379 1376 1373 1369 1364 1360 1357 1355 1353 1350 1347 1344 1341 1340 1339 1334 1334 1333 1334 1334 1334 1333 1332
1462 1458 1453 1449 1443 1439 1435 1429 1424 1418 1412 1407 1402 1398 1392 1387 1384 1380 1375 1371 1368 1365 1363 1359 1355 1351 1348 1346 1344 1341 1338 1335 1332 1331 1331 1328 1326 1325 1326 1325 1326 1325 1325
1455 1450 1446 1440 1435 1430 1426 1421 1416 1409 1403 1398 1394 1390 1385 1380 1376 1373 1368 1362 1358 1355 1352 1349 1346 1342 1339 1337 1335 1332 1329 1327 1323 1322 1322 1320 1318 1318 1318 1317 1318 1318 1318
1448 1442 1437 1433 1428 1422 1418 1413 1409 1402 1395 1389 1384 1380 1377 1373 1368 1364 1360 1354 1349 1345 1342 1338 1335 1332 1329 1327 1326 1324 1321 1319 1317 1314 1313 1313 1312 1313 1311 1311 1311 1311 1312